Voltar ao catálogo

SL-12 DEB

LostMEO
NORAD 27931·DEBRIS·🇷🇺 Russia

Lançado Sep 16, 1987 de Baikonur Cosmodrome

Loading…

Próximas Passagens (próximas 24 horas)

TLE

ObsoletoSource: Space-Track

Época: Jan 8, 2011, 04:54 UTC

1 27931U 87079AQ  11008.20450735 -.00000014  00000-0  10000-3 0  9999
2 27931  64.0475  30.1817 1852451  84.5786 296.2619  8.07373518220993

Acompanhe SL-12 DEB em tempo real com AllMySat

Download on the App Store